Lid_Strength_Index
0 0 0 0 0 -0 -0 -0 -0 -0 -1 -1 -1 -1 -1 -1 -0 2 6 3 2 -1 0 6 6 7 7 8 8 10 14 15 14 14 12 11 11 10 9 10 10 9 9 9 7
0 1 1 1 1 0 0 0 -0 -0 -0 -0 -1 -1 -1 -1 3 5 1 -1 -1 -1 6 8 9 8 9 9 9 11 14 13 13 12 12 11 11 10 11 11 11 10 9 8 7
0 1 1 1 1 1 0 0 0 -0 -0 -0 -0 -1 -1 0 6 6 -1 -1 -1 1 5 7 7 8 11 11 11 12 14 12 12 11 10 10 11 10 11 12 11 10 9 9 8
-0 0 1 1 1 1 1 0 0 -0 -0 -0 -1 -1 -1 3 13 5 -1 -1 -1 4 6 7 8 10 12 12 10 13 11 11 10 10 11 11 11 11 11 11 9 9 9 9 9
-0 -0 0 0 1 1 0 0 0 -0 -0 -0 -1 -1 3 9 8 3 -0 -0 4 6 7 8 10 10 12 12 11 12 11 10 10 10 10 10 11 11 11 11 10 9 9 9 10
-1 -0 -0 0 0 0 0 0 0 -0 -0 -0 -1 -0 5 12 3 3 3 4 5 6 8 8 9 9 11 11 12 11 11 11 10 10 10 11 11 11 11 11 10 10 10 10 10
-1 -0 -0 -0 -0 -0 -0 -0 -0 -0 -0 -0 -1 1 6 8 3 3 4 6 6 6 7 7 8 9 9 11 10 11 12 11 10 10 11 10 12 12 11 11 11 11 12 11 11
-1 -0 -0 -0 -0 -0 -0 -0 -0 -0 -0 -1 -1 3 8 3 3 4 5 6 6 6 6 7 7 8 9 10 11 13 13 15 11 11 11 11 14 11 11 12 12 12 13 12 11
1 0 -0 -0 -0 -0 -0 -0 -0 -0 -0 -1 3 6 9 2 4 3 5 6 6 6 7 5 7 10 11 13 14 14 16 15 12 11 12 13 14 12 12 13 13 13 13 12 12
1 1 1 1 1 0 -0 -1 -0 0 0 1 3 8 6 7 5 4 5 6 7 8 8 8 10 12 13 13 16 15 15 15 15 13 13 14 14 13 12 13 12 13 14 14 14
1 1 1 1 1 1 2 3 5 6 4 7 7 8 7 6 5 5 5 6 7 9 11 11 13 14 12 12 13 13 15 15 14 12 14 14 13 12 13 13 14 13 13 14 13
2 1 1 1 0 0 3 5 5 5 8 5 5 5 6 6 9 6 6 9 10 11 11 13 14 11 10 12 13 14 15 15 14 12 13 14 14 13 13 13 12 12 13 13 14
3 3 2 1 1 2 4 4 4 5 9 7 6 6 5 6 8 8 7 8 10 12 12 13 12 10 11 12 13 14 15 15 14 13 14 15 15 14 13 13 12 11 11 12 13
3 3 3 1 3 3 4 2 3 4 12 10 8 7 7 7 9 6 6 7 10 11 12 13 11 11 13 13 12 15 12 13 13 16 17 15 18 15 14 13 13 11 12 13 13
3 2 2 1 3 4 3 2 3 4 20 9 8 5 6 7 9 10 8 9 12 12 11 13 13 13 13 13 12 14 13 14 15 16 17 17 18 17 15 15 13 11 12 14 14
3 2 2 3 3 3 2 2 3 13 19 12 10 10 10 9 10 10 10 9 10 12 13 13 13 12 12 12 12 12 14 15 16 17 19 17 17 15 15 13 13 13 14 14 14
3 2 2 2 5 2 2 4 14 18 10 13 12 11 11 12 12 12 13 14 15 16 16 14 14 13 13 14 14 14 15 19 21 21 19 17 17 14 13 12 12 12 15 15 14
2 3 2 2 2 2 3 9 17 13 13 10 11 11 12 12 12 13 14 15 13 15 16 17 17 14 13 13 14 15 15 18 23 22 20 17 19 16 13 13 13 13 15 15 15
2 2 3 2 2 2 7 14 15 12 10 11 10 13 13 11 12 14 14 15 13 13 15 17 16 14 13 13 12 16 16 13 17 22 21 18 16 13 13 14 15 16 16 16 15
4 3 4 2 2 4 9 13 13 9 9 10 14 12 14 13 13 13 14 12 12 11 11 13 16 15 14 12 13 14 13 17 16 22 22 19 18 16 14 14 15 16 17 17 17
5 7 4 1 2 7 13 13 11 8 8 10 12 13 12 13 12 14 13 12 11 11 10 12 13 15 14 15 15 15 16 15 14 16 21 23 18 14 14 14 14 16 16 16 17
6 9 4 1 9 9 11 11 9 10 8 9 9 10 11 11 13 13 13 12 10 10 13 11 12 17 15 14 13 12 13 13 17 19 18 19 16 14 14 14 14 15 15 16 17
7 8 3 2 12 11 10 10 10 9 9 9 10 9 9 11 14 11 11 9 9 10 11 10 14 18 17 14 13 14 13 12 12 14 17 19 17 15 14 15 15 16 16 17 18
7 10 7 5 6 9 11 11 11 9 9 9 9 9 10 11 10 12 12 9 8 8 8 8 13 16 18 16 14 16 15 13 13 17 17 16 14 13 15 15 15 16 16 17 17
6 10 8 11 10 9 9 10 11 11 9 8 10 10 11 13 12 13 11 10 10 8 9 10 15 13 13 12 14 15 15 14 14 13 16 14 14 12 12 12 12 14 15 17 17
8 10 8 9 8 9 9 11 11 10 10 11 11 10 10 12 12 14 11 11 11 11 10 10 15 13 15 13 13 14 13 13 12 12 13 12 13 9 11 13 13 14 14 15 16
6 6 8 9 10 10 10 10 10 9 8 8 9 10 11 10 9 8 9 9 10 11 12 12 14 15 17 13 14 17 14 13 12 11 11 14 11 9 11 10 10 13 13 14 14